DW9298 Weather Reports


time (UTC)temp
C
wind
direction
speed
KPH
gust
KPH
rain 1hr
cm
rain 24hr
cm
rain mn
cm
humidity
%
barometer
mb
20260906213048 33 136 14.5 22.5 0.00 0.00 0.00 32 1015.9
20260906211556 33 125 11.3 25.7 0.00 0.00 0.00 33 1016.1
20260906210100 32 134 8.0 22.5 0.00 0.00 0.00 36 1016.3
20260906204556 31 89 11.3 20.9 0.00 0.00 0.00 38 1016.4
20260906203102 31 126 12.9 19.3 0.00 0.00 0.00 38 1016.6
20260906201558 30 217 4.8 20.9 0.00 0.00 0.00 40 1016.9
20260906200057 30 54 8.0 19.3 0.00 0.00 0.00 42 1017.2
20260906194559 28 66 8.0 17.7 0.00 0.00 0.00 44 1017.4
20260906193056 28 86 17.7 25.7 0.00 0.00 0.00 46 1017.6
20260906191555 28 62 9.7 24.1 0.00 0.00 0.00 47 1017.9
20260906184549 27 104 8.0 19.3 0.00 0.00 0.00 49 1018.4
20260906183054 27 88 9.7 20.9 0.00 0.00 0.00 49 1018.9
20260906181555 28 42 3.2 9.7 0.00 0.00 0.00 49 1019.1
20260906180056 27 311 1.6 9.7 0.00 0.00 0.00 51 1019.3
20260906174552 26 265 3.2 14.5 0.00 0.00 0.00 54 1019.7
20260906173056 26 306 4.8 12.9 0.00 0.00 0.00 54 1020.0
20260906171559 25 5 6.4 12.9 0.00 0.00 0.00 58 1020.2
20260906170100 23 346 4.8 14.5 0.00 0.00 0.00 60 1020.2
20260906164555 23 0 6.4 16.1 0.00 0.00 0.00 63 1020.2
20260906163049 22 13 4.8 14.5 0.00 0.00 0.00 66 1020.1
20260906161546 21 294 8.0 16.1 0.00 0.00 0.00 68 1020.3
20260906160051 21 300 9.7 16.1 0.00 0.00 0.00 71 1020.3
20260906154546 20 269 4.8 14.5 0.00 0.00 0.00 74 1020.4
20260906153047 19 5 4.8 16.1 0.00 0.00 0.00 77 1020.2
20260906151555 18 304 9.7 17.7 0.00 0.00 0.00 79 1020.2
20260906150052 18 293 11.3 19.3 0.00 0.00 0.00 81 1020.3
20260906144550 18 334 8.0 16.1 0.00 0.00 0.00 82 1020.4
20260906143047 17 346 4.8 12.9 0.00 0.00 0.00 84 1020.5
20260906141555 17 13 6.4 14.5 0.00 0.00 0.00 87 1020.3
20260906140054 16 306 4.8 12.9 0.00 0.00 0.00 90 1020.3
20260906134600 16 352 8.0 14.5 0.00 0.00 0.00 91 1020.3
20260906133054 15 337 4.8 11.3 0.00 0.00 0.00 91 1020.1
20260906131554 15 320 8.0 12.9 0.00 0.00 0.00 91 1019.8
20260906130130 15 273 6.4 11.3 0.00 0.00 0.00 90 1019.7
20260906124552 15 306 4.8 12.9 0.00 0.00 0.00 90 1019.6
20260906123048 15 327 9.7 14.5 0.00 0.00 0.00 90 1019.4
20260906121607 15 296 11.3 17.7 0.00 0.00 0.00 89 1019.5
20260906120104 15 285 8.0 12.9 0.00 0.00 0.00 88 1019.6
20260906114547 15 263 8.0 11.3 0.00 0.00 0.00 87 1019.5
20260906113057 15 308 6.4 9.7 0.00 0.00 0.00 87 1019.4
20260906111553 16 313 4.8 12.9 0.00 0.00 0.00 87 1019.1
20260906110049 16 331 3.2 8.0 0.00 0.00 0.00 87 1019.1
20260906104549 16 46 6.4 14.5 0.00 0.00 0.00 87 1019.0
20260906103059 16 35 8.0 14.5 0.00 0.00 0.00 86 1019.1
20260906101557 16 34 8.0 14.5 0.00 0.00 0.00 85 1019.4
20260906100052 16 34 8.0 14.5 0.00 0.00 0.00 85 1019.3
20260906094550 16 28 4.8 17.7 0.00 0.00 0.00 84 1019.1
20260906093057 17 49 12.9 17.7 0.00 0.00 0.00 84 1018.9
20260906091550 17 59 9.7 20.9 0.00 0.00 0.00 85 1019.1
20260906090050 17 63 12.9 24.1 0.00 0.00 0.00 84 1019.0
20260906084556 17 34 17.7 25.7 0.00 0.00 0.00 83 1018.8
20260906083054 17 22 17.7 22.5 0.00 0.00 0.00 82 1018.5
20260906081549 18 17 16.1 20.9 0.00 0.00 0.00 80 1018.6
20260906080048 18 352 11.3 19.3 0.00 0.00 0.00 76 1018.9
20260906074547 18 355 19.3 24.1 0.00 0.00 0.00 74 1018.6
20260906073055 19 333 16.1 24.1 0.00 0.00 0.00 71 1018.8
20260906071548 19 355 14.5 19.3 0.00 0.00 0.00 68 1018.9
20260906070240 20 20 12.9 16.1 0.00 0.00 0.00 68 1018.9
20260906070055 20 20 12.9 16.1 0.00 0.00 0.00 68 1018.9
20260906064550 20 5 11.3 17.7 0.00 0.00 0.00 69 1018.4
20260906063052 20 360 8.0 20.9 0.00 0.00 0.00 64 1018.6
20260906061547 20 298 12.9 22.5 0.00 0.00 0.00 61 1018.5
20260906054549 20 275 12.9 19.3 0.00 0.00 0.00 60 1018.8
20260906053057 21 268 12.9 17.7 0.00 0.00 0.00 59 1018.8
20260906051605 21 331 4.8 12.9 0.00 0.00 0.00 60 1018.2
20260906050056 21 58 4.8 9.7 0.00 0.00 0.00 58 1018.2
20260906044550 22 62 9.7 19.3 0.00 0.00 0.00 56 1018.2
20260906043056 22 32 14.5 22.5 0.00 0.00 0.00 55 1018.2
20260906041555 22 19 11.3 20.9 0.00 0.00 0.00 55 1018.2
20260906040051 23 49 14.5 19.3 0.00 0.00 0.00 56 1018.2
20260906034603 23 53 16.1 20.9 0.00 0.00 0.00 54 1018.0
20260906033056 23 9 12.9 19.3 0.00 0.00 0.00 48 1017.7
20260906031555 24 5 12.9 22.5 0.00 0.00 0.00 45 1017.7
20260906030057 25 348 19.3 25.7 0.00 0.00 0.00 43 1017.5
20260906024553 25 9 16.1 25.7 0.00 0.00 0.00 42 1017.2
20260906023103 26 319 16.1 27.4 0.00 0.00 0.00 39 1016.8
20260906021557 27 300 14.5 29.0 0.00 0.00 0.00 32 1016.6
20260906020052 27 319 20.9 29.0 0.00 0.00 0.00 30 1016.2
20260906014605 28 312 19.3 27.4 0.00 0.00 0.00 31 1016.2
20260906013052 29 19 8.0 14.5 0.00 0.00 0.00 31 1016.0
20260906011606 30 317 9.7 16.1 0.00 0.00 0.00 28 1016.0
20260906010049 31 338 8.0 14.5 0.00 0.00 0.00 26 1016.0
20260906004554 32 305 8.0 16.1 0.00 0.00 0.00 25 1016.0
20260906003050 33 316 6.4 12.9 0.00 0.00 0.00 23 1016.0
20260906001557 33 252 1.6 9.7 0.00 0.00 0.00 24 1015.9
20260906000054 33 82 4.8 16.1 0.00 0.00 0.00 24 1015.8
20260905234553 33 106 11.3 17.7 0.00 0.00 0.00 25 1015.8
20260905233047 33 84 12.9 19.3 0.00 0.00 0.00 24 1015.8
20260905231547 33 63 3.2 19.3 0.00 0.00 0.00 23 1015.9
20260905230053 33 117 4.8 24.1 0.00 0.00 0.00 23 1015.8
20260905224545 33 78 11.3 19.3 0.00 0.00 0.00 25 1015.7
20260905223056 33 63 9.7 16.1 0.00 0.00 0.00 24 1015.8
20260905221548 33 85 9.7 14.5 0.00 0.00 0.00 23 1015.9
20260905220058 33 71 6.4 25.7 0.00 0.00 0.00 23 1016.0
20260905214550 33 57 14.5 27.4 0.00 0.00 0.00 22 1016.0